Wind_Speed
31 28 27 28 27 25 24 25 26 26 26 25 24 24 24 23 22 21 21 21 21 20 20 21 20 19 19 19 18 18 18 18 18 18 18 18 19 20 21 21 20 19 18 18 17 17 17 17 17 17 17 17 17 17 17 17 17 18 18 19 19 19 19 19 20 21 21 21 21 22 22 21 21 21 21 22 22 21 21 22 22 22 22 21 21
33 31 30 30 29 27 27 29 28 28 28 28 26 25 25 24 23 23 23 23 22 21 20 19 20 19 19 18 18 18 17 17 17 17 16 16 17 17 18 19 20 20 20 20 19 19 18 18 18 18 18 18 18 19 19 19 19 19 19 20 20 21 21 21 21 22 23 24 24 24 25 25 24 24 24 24 24 24 24 24 25 25 25 24 24
34 34 33 32 32 30 31 33 32 30 31 30 28 26 26 25 25 25 25 24 24 24 23 22 20 19 19 19 19 19 19 19 18 18 17 17 17 17 16 17 18 18 19 19 19 20 19 19 19 19 20 20 20 21 21 22 22 22 22 22 22 22 23 23 23 23 24 25 26 27 27 28 28 27 27 27 27 26 26 26 27 27 27 27 27
34 35 35 36 37 37 36 36 35 33 32 32 32 30 28 25 25 26 26 27 27 26 26 26 24 22 21 20 20 20 20 20 20 20 19 19 19 19 19 19 18 18 19 19 19 19 19 19 19 19 20 20 21 21 22 23 24 24 25 25 26 25 25 26 26 26 26 27 28 29 29 30 30 31 31 30 30 29 29 29 29 29 29 29 29
32 33 35 37 38 40 41 39 37 35 34 36 36 33 30 27 26 27 28 29 30 29 27 27 26 25 23 23 22 21 22 22 22 21 20 20 20 21 21 21 21 20 20 20 20 20 20 20 20 20 20 21 22 22 22 23 23 24 25 27 28 28 29 29 29 30 30 29 30 31 31 31 32 32 33 33 33 32 32 31 31 31 31 31 30
33 33 35 36 35 36 37 37 37 37 37 39 39 35 32 30 29 29 31 31 32 31 29 29 29 27 26 26 25 25 25 25 25 24 23 22 21 22 23 23 24 24 23 23 23 23 24 24 24 24 23 23 23 23 24 24 24 25 26 26 27 28 29 30 31 32 32 32 32 33 33 34 33 34 34 35 35 35 35 34 33 33 33 33 33
37 37 38 39 38 36 36 36 36 36 36 35 36 35 34 34 33 33 33 33 33 32 31 33 32 28 27 27 28 28 28 29 29 27 26 25 24 24 26 26 26 27 27 27 27 27 28 28 27 28 27 26 26 25 25 25 26 27 28 28 29 30 30 31 32 32 33 33 34 34 35 35 35 35 35 36 36 36 36 36 35 35 35 35 35
38 40 41 42 43 42 40 40 39 38 36 34 35 35 36 37 39 38 36 35 34 34 34 35 33 30 29 30 31 31 31 32 32 31 28 28 27 27 28 29 30 29 30 31 31 31 31 31 30 31 31 30 30 29 28 28 29 30 30 31 31 32 33 33 34 34 34 34 35 35 36 36 37 37 37 37 37 37 37 37 37 36 36 36 36
41 42 43 44 45 45 43 42 41 41 40 39 39 40 39 40 41 40 38 37 37 37 37 37 35 33 31 31 32 32 30 30 31 30 28 29 30 30 31 32 32 32 32 33 34 34 35 35 35 35 35 35 35 34 34 34 34 34 34 34 34 34 34 35 35 36 37 37 37 37 37 37 38 39 39 39 39 38 38 38 38 38 38 38 37
46 46 46 46 46 47 46 44 43 42 43 43 42 42 43 43 41 39 39 39 41 42 43 41 38 35 32 31 32 31 30 30 31 31 29 30 31 33 35 36 36 35 35 35 35 35 36 36 37 37 37 38 38 38 38 38 38 38 38 38 38 38 38 38 38 38 38 39 39 40 40 40 40 40 41 41 41 40 39 39 40 40 41 40 40
50 50 49 49 48 49 50 48 46 44 43 44 45 45 46 46 45 42 40 41 43 45 46 45 42 38 37 37 38 38 38 38 37 36 35 35 36 36 38 39 39 39 38 37 37 37 37 37 38 38 38 39 40 41 42 42 42 42 42 42 43 43 43 43 43 43 42 42 41 41 42 42 42 43 43 43 43 42 42 41 41 41 42 42 42
50 51 51 50 50 50 51 51 50 47 43 42 44 46 47 48 49 48 47 45 45 45 44 43 42 39 40 42 43 44 45 44 42 41 39 40 41 41 41 41 42 43 43 42 41 41 41 42 42 42 41 42 43 44 44 45 46 45 45 46 46 46 46 46 46 45 46 46 45 45 44 44 44 45 46 46 46 45 45 44 43 42 42 42 43
49 50 50 51 51 51 51 51 51 50 48 46 45 46 47 49 51 52 52 51 50 50 48 46 45 43 44 46 47 47 46 45 44 42 41 41 42 42 43 43 44 44 44 44 45 45 45 46 46 46 46 46 47 47 47 47 48 48 48 48 49 49 49 49 49 48 48 48 48 48 48 48 47 46 47 49 49 49 48 47 47 46 44 43 43
49 49 49 50 50 50 50 51 50 50 50 50 49 49 50 50 51 53 54 53 53 54 53 52 52 51 51 51 50 50 48 47 47 46 45 45 45 45 46 46 45 45 46 47 48 48 49 49 49 50 50 50 50 50 50 50 50 51 51 50 50 51 50 50 50 50 50 50 50 50 50 50 50 49 49 50 50 51 52 51 49 48 48 47 46
49 49 49 49 50 50 50 51 51 51 51 51 51 52 52 52 53 54 55 55 55 55 55 55 55 56 57 57 55 54 54 53 53 52 51 50 50 51 52 51 50 50 51 52 52 52 52 53 53 54 55 55 55 54 54 54 53 53 53 52 51 51 51 51 52 52 52 51 51 51 51 51 51 51 52 52 52 52 53 54 53 52 51 50 49
49 49 49 49 49 50 50 50 51 51 51 51 51 52 52 52 53 53 54 55 56 56 56 56 56 56 58 59 59 58 58 58 56 55 54 54 54 55 55 55 55 55 56 56 55 55 55 55 56 56 58 58 58 58 58 57 56 54 53 52 52 52 52 53 53 53 53 52 52 52 52 53 53 53 53 54 54 54 54 55 56 56 55 54 53
48 48 49 49 49 49 49 50 50 51 51 51 52 52 52 52 52 52 53 53 54 54 55 55 56 55 56 58 59 57 57 57 56 56 56 55 55 55 55 55 55 56 57 57 57 56 56 57 57 58 59 58 58 57 56 55 54 54 53 53 53 53 52 52 53 52 52 53 53 53 54 54 55 55 55 55 55 56 57 56 56 57 57 56 56
48 48 48 49 49 49 49 49 49 50 50 51 51 52 52 52 52 52 52 53 53 53 53 54 54 54 54 55 55 53 53 54 55 55 55 53 53 53 53 53 53 54 54 55 55 56 57 57 57 57 56 56 55 54 53 52 52 52 52 52 52 51 50 49 49 50 50 51 52 53 54 55 56 57 58 58 57 58 58 58 58 58 56 56 57
48 48 48 48 48 49 50 50 50 50 50 51 52 52 52 52 52 53 53 54 54 54 54 54 54 53 52 52 52 52 53 53 53 53 52 51 50 50 50 51 51 51 52 52 53 54 54 54 55 55 55 54 53 51 50 51 50 50 50 50 49 49 50 50 50 50 50 50 51 52 53 54 56 58 59 60 61 61 60 60 60 60 59 57 57
48 48 48 48 48 48 49 50 50 51 51 51 52 52 53 53 53 53 53 54 55 55 55 55 54 53 52 52 53 53 53 53 53 52 51 50 50 49 49 49 50 50 50 50 51 51 52 52 53 53 53 53 51 50 50 50 50 49 49 50 51 52 52 52 52 51 51 51 52 52 53 54 56 57 59 60 61 62 63 63 63 62 61 60 59
48 48 47 47 48 48 49 50 50 51 51 51 52 52 52 53 53 53 53 53 55 55 55 55 54 53 52 52 53 53 53 53 53 52 52 51 51 50 50 50 50 50 50 50 50 51 52 52 52 52 52 51 50 50 51 50 50 50 51 52 52 53 52 52 51 51 50 50 50 51 53 55 56 58 59 61 62 63 64 65 65 64 63 62 62
47 47 47 47 48 48 49 49 50 50 50 51 51 51 52 52 52 53 52 53 54 55 54 53 53 52 52 52 53 52 52 52 52 51 51 51 52 51 51 51 51 50 50 50 51 51 52 52 51 51 51 51 51 51 51 51 51 51 51 52 52 52 52 51 51 50 50 49 49 49 50 52 53 55 57 59 61 62 63 64 65 65 65 64 64
48 47 47 47 47 48 48 49 49 49 49 50 50 50 50 51 51 52 52 52 54 54 52 51 51 51 51 52 52 52 52 52 52 51 51 52 52 52 52 52 52 51 51 51 51 51 52 52 51 51 51 51 51 51 51 51 50 50 51 51 52 52 52 52 51 51 51 51 51 51 51 51 52 53 54 56 57 59 60 62 63 64 64 64 64
48 48 48 47 47 47 48 48 48 48 49 49 49 49 49 49 49 49 50 51 52 51 49 48 49 49 50 50 50 50 51 51 51 51 51 51 52 52 52 52 52 51 51 51 51 50 51 51 50 50 50 50 50 50 50 50 50 50 51 52 52 52 52 51 51 51 52 52 53 53 53 54 55 56 56 57 58 59 60 60 61 62 63 63 63
50 49 49 48 47 47 47 47 47 48 48 48 48 49 48 47 46 47 48 49 49 48 46 46 47 47 47 47 47 47 48 49 49 48 48 48 49 49 50 50 49 49 48 48 48 48 48 48 48 48 48 48 48 49 49 50 50 51 51 52 52 51 51 51 51 51 52 52 53 54 55 55 56 57 58 59 60 62 63 63 63 63 63 62 62
51 50 49 48 48 48 47 47 47 47 46 46 47 48 47 46 46 47 48 49 48 48 47 46 45 46 46 45 44 44 45 45 45 45 46 46 47 46 46 46 46 46 46 45 45 45 46 46 46 47 47 48 48 49 49 50 51 51 51 51 50 50 51 51 52 53 54 55 56 57 57 58 59 59 60 60 61 61 63 64 65 66 66 65 65
52 51 50 49 48 47 46 46 46 45 45 45 46 46 46 46 46 47 47 48 47 47 46 44 44 46 46 44 43 43 43 43 44 45 46 46 46 46 46 46 46 46 46 46 46 46 46 46 46 46 47 48 49 49 50 49 49 48 49 50 51 52 52 54 55 56 58 59 59 59 59 59 59 59 60 60 61 62 63 64 65 65 66 67 66
52 51 50 49 48 47 46 44 43 44 44 44 44 44 44 44 45 45 46 46 45 45 44 43 44 45 44 43 43 44 44 44 45 46 46 46 46 47 47 47 47 48 48 48 48 47 46 46 46 46 46 47 47 47 46 46 46 47 48 50 52 54 55 57 58 59 59 59 59 59 59 59 59 58 58 58 58 59 61 62 63 64 66 66 66
52 52 50 48 47 47 46 44 44 44 44 43 43 44 44 44 44 44 45 46 45 44 44 44 44 44 44 43 44 44 45 45 46 45 45 45 46 46 47 47 47 47 46 47 46 45 43 42 42 42 42 42 43 44 44 45 46 48 50 52 54 56 57 58 58 58 59 59 59 60 59 59 59 58 57 57 56 57 58 58 59 60 62 64 64
53 52 50 49 48 47 47 46 46 45 44 43 44 45 44 44 44 44 45 45 45 44 44 44 45 44 44 44 44 45 45 45 44 44 43 43 42 42 42 42 41 40 40 39 38 37 36 36 36 37 37 39 40 42 44 46 48 50 52 54 56 57 58 58 59 59 60 60 61 60 60 59 59 58 58 57 56 56 57 57 56 56 57 58 59
53 52 51 49 48 48 48 47 46 45 44 44 44 44 43 43 43 43 44 44 44 43 43 43 43 43 43 43 43 43 42 42 42 40 39 37 36 35 34 33 32 31 31 30 30 30 31 32 33 35 36 38 40 42 44 47 49 51 53 55 57 58 59 60 61 61 60 60 60 59 59 58 58 57 57 56 55 55 55 55 55 55 54 55 55
53 52 51 50 49 48 48 47 46 45 45 44 44 43 43 43 42 42 42 42 42 41 40 40 40 40 40 39 39 39 38 37 34 32 29 27 26 24 24 24 24 25 25 26 27 28 30 31 33 34 36 38 41 43 45 47 49 51 53 55 57 58 59 59 59 58 58 58 57 57 56 55 55 54 54 53 53 53 53 53 52 52 52 53 53
54 53 51 49 48 47 46 46 45 44 44 43 42 41 41 41 41 40 39 38 38 37 36 35 35 35 35 35 34 33 31 27 24 21 19 18 18 18 19 21 22 22 22 23 25 26 28 30 32 34 36 38 40 42 44 46 49 51 53 55 55 56 55 55 55 55 55 55 54 53 51 51 50 50 49 49 48 49 49 49 49 49 49 49 49
53 52 51 49 47 45 44 44 43 41 40 39 38 37 36 35 34 33 32 31 31 31 31 30 30 29 29 28 26 25 22 19 17 16 15 15 16 18 19 19 19 19 20 22 24 26 27 29 31 33 35 37 39 41 43 46 48 50 52 53 53 53 53 53 53 52 51 50 48 46 45 44 44 43 42 42 42 42 42 42 43 43 44 44 44
50 49 49 47 45 43 41 40 38 37 34 31 28 27 27 26 25 25 25 25 25 24 24 23 22 21 19 18 18 17 16 16 16 15 15 16 17 18 17 16 16 17 19 21 23 24 26 28 30 32 34 36 38 41 43 45 48 50 51 52 52 52 51 50 48 46 44 42 40 39 38 37 36 36 35 34 34 34 35 35 36 36 36 36 36
43 44 43 42 40 39 37 35 32 29 26 22 19 20 20 20 20 20 20 19 19 18 18 16 15 14 13 13 14 14 15 15 15 15 15 15 15 13 12 13 14 15 17 19 21 23 25 27 29 31 33 36 38 40 42 45 47 49 49 49 48 47 45 42 40 37 35 33 31 30 29 28 28 28 27 27 27 27 28 28 29 30 30 31 32
36 36 36 35 34 33 32 29 26 22 20 19 18 19 19 18 17 17 17 16 16 15 14 13 12 13 13 13 13 14 14 14 14 13 12 10 8 8 9 10 12 14 16 19 21 23 25 27 28 30 31 34 36 39 41 43 45 45 44 42 40 38 35 32 29 27 25 25 25 24 23 23 23 23 22 21 22 23 24 25 26 27 28 29 29
26 26 26 26 26 25 25 23 22 20 19 19 18 18 17 17 16 16 17 17 16 15 13 12 13 13 13 13 13 13 13 12 11 9 7 5 4 5 6 8 11 14 17 19 21 22 23 24 26 28 30 33 36 38 40 41 40 38 35 32 30 28 24 22 20 20 21 21 22 22 21 20 19 19 19 19 20 21 22 23 24 25 26 27 28
15 17 19 20 21 22 22 22 21 21 20 19 18 17 17 16 16 16 15 16 16 15 13 12 12 12 13 14 14 14 13 11 9 7 5 3 1 2 6 9 11 13 15 17 18 20 21 23 25 27 30 33 36 38 39 37 34 30 26 23 21 21 19 18 18 18 18 18 17 16 15 14 15 16 17 18 19 21 22 23 25 25 26 27 28
14 16 18 20 20 21 20 20 20 20 19 18 18 18 18 18 17 15 14 14 14 14 13 13 13 13 14 15 15 14 12 10 8 6 5 3 2 4 6 8 10 12 14 16 18 19 20 22 25 28 31 34 37 39 37 34 28 23 19 17 17 18 17 17 16 15 14 12 11 11 12 13 14 16 18 20 21 22 23 24 24 25 25 25 25
16 18 19 20 20 20 20 19 19 19 18 18 18 18 18 17 16 15 14 14 13 13 14 14 14 14 15 16 15 13 11 10 9 8 6 4 3 4 5 8 11 14 15 17 19 20 21 24 27 30 33 36 38 38 34 28 23 18 15 14 14 13 11 11 11 10 10 10 10 12 13 15 17 19 21 20 20 19 20 20 20 20 20 19 19
16 18 19 21 21 20 20 20 20 19 18 17 17 17 17 16 15 14 13 13 14 15 15 15 15 16 17 15 13 12 11 10 9 8 6 4 4 4 6 9 13 15 17 19 21 22 24 26 28 30 33 36 37 36 30 23 17 14 13 12 10 8 7 8 9 11 11 12 13 14 16 18 21 22 21 18 17 17 17 17 17 16 16 16 16
15 16 16 18 18 19 19 19 18 18 17 17 17 17 16 15 14 13 12 13 15 16 16 16 18 17 16 14 12 12 11 11 10 8 6 4 4 4 7 10 12 15 18 21 23 25 27 28 29 32 34 36 37 35 28 19 14 12 12 11 9 8 7 8 10 11 11 11 13 15 17 19 21 20 18 17 17 18 19 18 16 15 13 12 11
14 14 15 16 17 18 18 19 18 18 17 17 16 15 15 14 13 12 12 13 16 17 18 19 18 16 14 13 13 13 13 12 9 7 6 4 3 3 6 9 12 15 18 21 24 27 28 30 31 33 35 37 38 37 30 19 13 12 12 11 9 8 7 8 9 9 10 12 14 15 16 17 17 18 18 19 19 19 18 16 14 11 9 8 8
13 12 13 14 15 16 17 17 17 16 16 15 14 14 15 14 14 13 14 16 18 20 20 18 17 15 14 13 13 13 13 11 9 7 6 3 1 2 5 8 12 15 18 21 24 26 29 31 33 35 36 37 39 40 35 24 14 12 13 11 8 6 7 8 9 11 12 14 13 12 12 14 16 18 18 19 18 16 14 12 10 8 6 6 7
11 11 11 11 11 12 13 14 14 14 13 13 13 13 14 14 14 15 17 19 21 20 19 17 16 14 14 14 14 14 13 10 8 7 5 3 1 2 5 8 11 14 18 21 23 26 29 32 34 36 37 38 38 41 41 31 19 14 13 11 7 6 7 8 11 13 13 10 8 8 11 14 15 16 15 14 12 11 9 8 7 5 4 3 3
6 7 7 7 8 8 9 9 10 10 11 11 12 13 14 15 17 18 20 21 20 18 17 16 15 14 15 15 15 15 13 11 8 7 5 3 2 2 4 7 10 13 17 20 23 25 27 31 34 36 38 39 38 40 43 37 25 16 14 12 8 7 7 8 11 12 9 5 5 9 13 14 13 12 10 9 8 7 7 5 5 5 4 3 4
5 5 5 6 6 7 8 8 9 10 11 12 14 15 16 17 19 20 20 19 17 17 16 16 16 16 17 17 16 15 14 11 8 7 6 4 4 3 5 7 9 13 16 19 22 24 26 29 32 35 38 40 39 39 42 41 32 20 14 12 10 7 6 9 11 9 4 3 5 9 12 14 12 9 8 8 9 8 7 6 6 7 6 6 7
7 6 5 5 5 6 8 10 11 12 14 15 16 17 17 18 18 18 17 16 16 16 17 17 17 18 18 18 16 15 13 10 9 8 7 5 5 5 5 7 9 12 15 18 21 23 25 28 30 33 36 39 40 39 40 41 37 26 15 12 11 8 7 9 9 6 2 2 6 8 10 11 9 6 7 8 9 9 9 7 7 7 7 8 8
8 7 6 5 5 5 7 9 10 12 13 14 15 15 16 15 15 15 15 15 15 16 17 17 18 18 18 17 15 14 13 11 10 9 8 7 6 6 6 7 9 11 14 16 19 22 24 26 28 31 34 37 40 40 38 39 39 32 19 11 10 10 8 7 7 5 3 1 5 7 8 7 6 5 6 7 8 9 9 8 7 7 7 7 8
7 6 5 4 4 5 7 9 10 11 12 12 13 13 13 14 14 14 14 14 15 16 16 17 17 17 16 15 15 14 13 12 11 11 9 8 8 7 7 7 9 10 13 15 18 21 23 25 27 29 32 34 37 39 39 38 39 37 27 15 10 9 8 7 6 5 4 2 3 5 7 7 7 6 5 5 6 7 7 7 7 6 6 7 7
Wind_Direction
256 253 252 252 256 259 261 263 262 262 261 258 255 255 258 261 263 266 268 270 272 273 275 276 274 271 267 263 261 261 262 263 265 266 265 264 264 265 265 265 265 266 266 267 268 268 268 268 267 266 266 266 267 268 268 268 267 268 270 272 272 270 268 267 268 269 268 267 267 267 266 264 263 262 262 262 263 264 264 264 264 263 262 261 260
255 256 255 255 256 257 257 258 257 259 261 260 255 252 253 256 257 259 261 265 267 265 263 266 270 271 268 265 262 259 258 258 259 262 265 266 266 266 268 269 270 270 269 269 269 269 269 269 269 268 268 267 267 267 266 266 266 265 266 267 268 270 271 269 268 269 271 271 271 271 271 270 268 266 265 265 265 264 265 265 266 266 265 264 262
254 256 258 259 259 258 256 256 256 257 261 262 259 253 251 253 253 254 256 259 261 259 256 257 258 261 264 266 267 265 262 259 258 258 261 265 267 268 267 268 270 272 272 271 271 271 270 270 270 271 270 270 269 269 269 268 267 266 266 265 264 265 267 268 268 267 269 270 270 270 271 272 271 270 269 267 267 266 265 265 266 267 267 267 266
259 260 261 261 263 263 260 258 259 260 263 264 261 254 251 254 255 255 255 256 256 255 255 256 253 251 255 260 263 266 267 266 263 261 261 263 266 267 265 265 266 268 270 271 271 271 271 271 271 271 272 271 270 270 270 270 269 268 267 266 266 265 264 265 265 265 266 268 270 270 269 270 270 271 270 270 269 268 267 267 267 267 268 268 268
260 261 261 262 264 264 261 259 260 264 268 266 261 254 251 253 256 259 261 262 262 258 255 256 253 249 251 253 256 260 263 266 266 264 264 266 267 269 269 268 268 268 270 272 272 271 271 271 271 273 274 275 275 274 273 272 272 271 270 269 268 267 266 265 264 264 264 265 267 269 270 270 270 270 270 270 270 269 268 268 268 268 268 268 268
260 260 260 264 266 263 260 258 259 266 270 264 256 254 253 251 255 262 264 265 265 261 256 253 250 249 251 252 253 254 255 258 261 262 264 266 268 270 271 273 275 276 277 278 277 275 273 272 272 273 275 275 275 276 276 277 277 277 276 275 274 273 272 270 269 268 267 266 265 266 268 269 270 270 270 270 270 270 269 269 268 268 268 268 268
261 261 260 263 266 264 262 261 262 268 271 261 254 258 258 253 257 265 266 263 261 258 257 253 248 248 252 253 254 255 254 255 256 258 260 263 264 265 268 270 272 275 278 280 281 280 278 276 275 276 276 276 275 275 275 277 279 280 280 280 279 279 278 277 276 275 274 273 271 269 269 269 270 270 270 269 270 270 270 269 269 268 268 268 269
262 262 262 263 265 265 264 264 265 267 268 262 260 264 262 258 263 267 266 262 257 255 257 255 250 251 256 257 255 255 256 256 256 256 257 259 261 263 265 267 268 269 272 274 276 278 278 278 278 278 278 278 277 276 276 278 280 282 283 282 282 281 280 280 279 278 278 277 277 276 274 273 272 272 271 270 270 270 270 270 270 269 268 267 268
262 262 262 263 265 266 266 265 265 265 265 263 262 263 262 263 266 267 264 261 257 257 259 257 254 255 258 259 256 253 256 258 257 257 257 256 259 262 265 267 269 270 271 272 273 274 274 274 275 276 277 278 278 278 278 279 280 282 283 284 284 284 283 282 281 279 278 277 277 277 276 275 274 273 273 272 272 271 271 271 271 271 270 268 266
260 260 261 261 262 263 264 263 262 261 261 261 260 260 262 264 266 266 264 261 258 259 260 259 259 258 256 256 254 253 259 263 262 263 263 260 261 263 264 267 269 271 273 275 275 275 274 274 273 274 276 278 279 280 280 280 281 282 283 285 285 286 285 284 284 282 281 279 278 277 276 275 274 273 272 272 271 271 271 271 271 271 270 269 268
260 260 260 261 261 262 262 263 262 260 259 259 258 260 262 264 265 266 264 260 257 257 257 257 258 259 257 258 259 260 265 268 267 269 270 267 265 264 264 265 267 268 271 273 274 275 276 276 275 276 278 279 280 280 281 281 282 282 284 285 286 286 285 284 283 282 281 280 280 279 277 276 274 273 272 270 269 269 269 269 269 269 268 268 268
260 260 260 261 262 262 262 262 263 262 260 258 258 259 260 262 264 264 262 261 258 257 257 258 258 258 258 260 261 263 266 269 269 270 271 269 267 266 265 265 266 267 268 270 272 274 275 276 277 277 278 280 280 280 281 281 282 283 284 284 285 285 285 285 283 281 280 278 278 278 278 277 275 274 272 270 269 268 266 266 266 266 266 265 265
261 261 261 261 261 262 261 262 262 262 260 258 256 256 257 259 261 262 262 262 260 259 260 261 260 260 259 260 261 263 266 270 271 271 270 268 268 267 267 266 266 268 270 271 273 274 275 276 277 278 278 279 280 280 281 282 282 283 283 283 284 285 286 286 285 282 280 278 276 275 275 275 275 274 273 272 270 268 266 265 265 264 264 263 263
261 261 262 262 262 262 262 261 262 262 262 261 259 257 257 258 259 261 263 264 264 263 263 262 263 263 262 262 262 264 268 271 272 273 273 273 272 272 271 270 270 271 272 273 275 276 277 278 279 279 280 280 280 281 282 282 283 283 283 283 283 283 284 284 283 282 281 279 278 276 274 273 272 271 270 270 270 269 267 265 264 264 263 263 262
261 261 261 262 262 262 262 262 262 262 263 263 263 262 261 261 262 263 264 265 266 267 266 266 266 266 266 265 264 265 269 272 274 275 275 275 275 275 274 274 274 274 275 276 277 278 279 279 280 280 280 280 280 281 282 283 283 282 282 282 281 281 280 280 279 279 279 279 278 277 275 274 272 270 269 267 267 268 267 265 263 263 262 262 262
261 261 261 261 261 261 261 261 262 262 263 263 264 264 265 265 265 265 265 266 266 267 268 268 268 268 268 268 267 267 270 273 275 276 276 276 276 276 276 276 276 277 277 278 279 279 279 279 279 279 279 280 281 282 282 282 282 281 281 279 278 278 278 277 276 276 276 276 276 275 274 272 271 271 270 268 266 265 265 264 263 262 261 260 261
262 262 262 262 262 262 262 261 261 262 262 263 263 264 264 265 266 266 266 266 266 267 268 268 268 269 269 270 270 270 271 272 273 274 274 275 275 275 276 277 276 276 277 278 278 278 278 278 278 279 280 280 281 280 280 280 280 279 278 278 278 277 276 274 274 274 275 274 274 273 272 271 269 269 269 269 267 265 264 262 262 262 262 260 259
263 262 262 261 261 262 262 262 262 262 262 263 263 264 264 264 264 265 265 265 266 266 267 268 268 269 270 272 272 272 271 271 271 272 273 274 274 274 274 275 275 275 275 275 276 276 276 277 277 278 279 279 279 279 278 278 277 276 277 277 277 275 274 273 274 274 274 274 273 273 271 270 269 268 267 268 268 267 265 262 261 262 263 263 261
264 263 263 262 262 262 262 261 262 262 263 263 264 264 264 265 265 265 265 265 265 266 266 266 267 268 270 271 271 271 271 271 272 273 273 274 274 273 273 273 273 273 273 273 274 274 275 275 276 276 277 277 278 278 277 275 275 275 276 275 273 273 274 275 275 275 274 273 272 271 271 270 269 268 267 267 267 267 266 265 263 263 263 263 264
264 263 263 263 263 262 262 262 261 261 262 262 264 264 265 265 265 265 265 266 266 266 266 266 267 268 269 270 269 270 270 271 272 273 274 274 274 273 273 273 273 273 273 273 273 273 273 273 274 275 276 276 277 276 275 274 274 274 274 273 273 274 275 276 275 274 273 271 270 270 270 269 268 267 267 267 266 266 265 265 265 265 264 264 264
264 264 264 264 264 263 263 262 262 262 261 262 263 264 265 265 265 266 266 266 266 265 266 267 267 268 268 269 269 269 270 270 271 272 273 273 273 272 273 273 273 273 273 273 273 273 273 273 274 275 275 276 276 275 274 273 273 273 273 273 274 275 275 275 274 273 272 271 270 269 269 268 268 267 267 266 266 266 265 264 264 265 265 265 264
265 265 265 264 263 263 263 263 263 263 263 262 263 263 264 265 266 266 267 266 266 266 266 267 267 267 267 268 268 269 270 270 270 271 271 271 271 272 272 272 273 273 273 273 273 273 273 273 274 274 275 275 275 274 274 273 273 272 273 273 274 274 274 273 273 272 271 271 270 270 269 268 268 268 267 267 267 266 265 265 264 264 264 264 264
265 265 264 263 263 263 263 263 263 263 263 263 263 263 263 264 265 266 266 267 268 268 268 268 267 266 266 266 267 268 269 269 270 270 270 270 271 271 272 272 272 272 273 273 273 273 273 274 274 275 274 274 274 274 274 273 273 273 273 273 273 273 273 273 272 272 271 271 271 270 270 269 270 270 270 269 268 268 268 267 266 265 264 264 264
265 265 264 264 264 264 264 264 264 264 264 264 263 263 264 264 265 265 266 267 268 269 269 269 268 267 267 266 266 266 267 267 268 268 268 269 270 271 271 271 272 272 272 273 273 273 274 274 274 274 274 274 274 274 273 273 272 272 272 272 272 272 272 272 271 271 271 271 271 271 271 270 271 271 271 270 270 269 269 268 268 267 266 265 264
265 265 265 265 264 264 264 264 264 263 263 263 264 263 263 264 265 265 266 267 269 270 270 269 269 270 269 268 267 266 266 265 266 267 269 270 270 270 271 271 272 272 272 272 273 273 274 274 274 274 274 274 274 273 273 272 271 271 272 272 271 270 270 270 270 270 270 270 270 270 270 270 270 270 270 270 270 269 269 268 268 267 267 265 264
265 265 265 264 264 264 264 264 264 263 263 263 263 263 263 263 263 264 265 266 268 270 270 270 270 269 269 269 269 268 267 266 267 269 270 271 271 272 272 272 272 272 273 273 274 274 274 274 275 275 275 275 274 274 273 272 271 272 272 272 271 271 272 272 272 272 272 272 271 271 271 271 271 271 270 270 269 269 269 268 267 267 266 266 265
264 265 265 265 264 264 264 264 264 264 264 263 262 263 263 263 263 264 265 266 267 268 268 268 268 267 268 269 269 268 268 269 269 270 270 271 271 272 272 272 273 273 273 273 273 274 274 274 275 275 274 274 274 274 273 272 271 272 272 273 273 274 274 274 274 275 275 275 275 275 275 275 274 273 272 271 269 269 268 268 267 266 266 265 265
263 263 264 264 265 264 264 263 264 263 263 262 263 263 264 264 264 265 265 266 266 266 267 267 266 266 268 269 269 269 269 269 269 269 270 270 270 270 270 271 271 271 271 271 272 272 273 273 273 273 273 273 274 273 272 270 270 271 273 274 275 275 276 277 278 279 279 279 279 279 278 277 276 275 273 272 270 269 268 267 266 266 266 266 265
263 263 264 264 264 264 264 264 264 263 263 263 264 264 264 264 264 265 266 267 267 267 268 267 267 267 268 268 268 268 268 268 268 269 269 270 270 270 269 269 269 269 270 270 272 272 272 272 272 273 274 275 275 273 270 269 271 274 275 276 277 278 279 280 281 281 281 281 280 279 278 277 276 275 273 272 271 269 268 266 266 265 265 265 266
263 264 263 263 263 264 264 264 264 264 264 264 264 264 264 264 264 265 265 266 266 267 267 267 266 267 267 266 266 266 266 266 267 267 267 267 267 268 268 268 268 268 268 269 270 272 272 273 273 275 277 277 277 276 274 273 275 276 278 279 280 281 282 282 281 281 281 280 279 279 278 277 276 274 273 272 271 269 268 267 267 266 265 265 265
261 261 262 262 262 262 263 263 264 264 264 264 264 265 265 265 265 265 266 267 267 267 267 266 265 265 264 263 263 263 263 264 264 264 263 264 265 266 267 267 269 269 270 270 270 271 274 276 277 278 280 280 280 279 278 278 278 279 281 282 282 283 282 282 282 281 281 280 279 278 277 276 275 274 273 272 270 269 267 267 266 266 265 264 264
258 259 259 259 259 260 261 262 263 263 264 265 265 266 267 266 266 267 267 267 267 266 265 263 262 261 260 259 258 258 258 258 259 259 260 261 262 264 266 268 269 270 269 269 270 273 276 279 280 280 281 281 281 282 282 283 283 284 284 283 283 283 283 282 282 282 281 280 280 279 278 277 276 275 274 272 270 269 268 267 266 265 264 264 264
257 257 258 258 258 258 259 260 261 261 262 263 264 265 266 266 266 266 265 264 263 261 258 255 253 252 251 251 251 252 252 251 251 253 255 256 259 264 266 267 268 268 269 272 275 278 280 281 281 282 283 285 286 287 288 288 287 286 286 285 285 285 285 285 284 284 283 283 282 281 281 279 278 276 274 272 270 269 268 267 266 265 264 264 264
256 256 256 256 256 256 256 257 259 260 261 261 262 262 262 262 262 262 259 256 253 250 247 245 244 245 245 246 246 245 242 240 241 243 247 254 264 268 266 265 268 272 276 278 280 283 284 286 288 289 291 292 293 293 293 292 291 290 289 289 289 289 288 288 287 286 285 285 284 284 282 280 278 277 275 273 271 270 268 267 266 265 265 264 264
253 253 253 253 253 252 252 253 255 256 256 256 256 256 255 254 253 251 247 244 242 241 240 241 241 241 240 238 237 235 232 232 234 239 249 259 263 263 262 266 273 280 283 285 287 290 293 294 296 297 298 298 298 297 295 294 293 292 291 291 291 291 290 289 288 287 287 287 286 284 283 281 279 278 276 275 273 271 270 268 267 266 265 265 265
247 247 247 247 246 246 245 244 246 248 245 238 238 244 245 241 238 237 237 237 237 235 233 232 230 228 226 225 226 229 231 232 236 243 250 254 254 257 266 277 283 287 291 295 298 300 301 302 302 303 302 301 299 298 296 295 294 293 293 292 292 291 290 289 289 289 288 288 286 285 284 283 281 279 278 276 274 272 270 268 267 267 267 267 268
239 239 238 237 236 236 235 233 232 230 224 217 220 230 233 232 233 233 232 231 227 220 217 218 218 218 220 224 229 232 233 233 234 234 236 240 249 265 280 289 296 303 307 308 308 307 307 307 307 306 305 304 304 302 301 299 297 296 295 294 292 291 291 291 291 291 291 290 289 288 287 286 284 282 280 278 275 272 270 269 269 270 271 271 270
232 230 227 225 221 218 217 215 211 207 206 208 216 224 228 229 229 227 224 221 216 213 216 220 218 217 222 229 229 226 222 216 212 208 210 225 254 281 301 316 321 320 317 313 311 310 310 311 313 314 314 314 313 311 308 305 303 301 298 296 294 294 294 295 296 297 297 295 293 291 290 288 286 284 283 281 278 276 274 274 273 272 271 271 270
202 198 195 195 194 194 195 196 196 197 202 209 217 222 224 222 219 216 215 214 215 218 222 222 220 224 227 223 214 204 196 189 183 180 186 198 233 344 348 340 332 326 321 317 315 314 316 320 323 325 325 324 322 319 316 313 310 306 302 299 298 298 299 298 298 298 299 297 295 294 295 295 294 291 289 286 283 281 279 277 275 274 272 270 269
174 169 169 173 179 183 185 187 191 198 207 214 219 220 218 215 212 212 212 211 212 215 217 220 226 226 216 202 191 183 177 172 168 167 162 143 78 28 3 350 345 343 338 333 327 325 326 331 334 334 334 333 331 328 324 320 317 312 307 305 303 301 301 300 296 294 295 298 299 300 300 299 299 299 297 293 288 285 282 280 279 277 276 273 272
176 174 174 176 180 184 185 187 196 207 214 216 215 212 210 208 209 210 210 209 210 214 220 225 225 212 194 182 177 173 170 167 165 160 149 121 78 44 20 10 6 2 356 350 344 340 339 341 342 342 342 340 338 334 330 325 320 317 317 317 311 304 306 309 302 292 292 297 300 299 297 299 304 308 305 299 294 290 287 286 284 283 283 283 281
166 173 177 179 182 186 189 194 201 207 207 204 200 197 197 200 206 209 209 211 217 225 229 223 207 190 178 173 172 172 171 171 169 162 150 126 91 55 30 18 12 6 2 359 357 354 351 349 348 348 348 346 344 342 337 328 321 321 327 329 320 303 302 313 309 300 298 298 296 296 298 302 307 310 308 302 300 299 298 296 294 293 292 289 283
144 155 164 170 176 181 186 190 192 192 190 191 192 193 196 203 206 206 208 215 221 222 215 199 185 177 172 172 175 179 181 180 177 169 155 132 96 50 25 14 7 2 360 1 2 2 359 356 354 354 352 351 350 350 346 334 322 325 334 337 332 318 309 309 306 303 304 303 300 300 303 305 308 311 312 310 309 309 308 305 303 299 292 285 283
130 139 148 156 162 166 170 174 177 180 183 188 193 197 201 204 203 205 215 221 215 202 190 182 177 174 174 178 184 188 189 187 182 170 154 135 94 36 17 7 359 355 356 359 3 5 3 1 359 358 356 355 356 358 356 344 328 328 335 337 339 341 333 320 314 312 311 310 309 309 311 314 316 319 320 318 315 313 310 308 305 301 293 287 295
121 130 140 149 155 161 166 172 177 182 187 192 197 200 201 202 206 215 221 213 197 185 179 178 177 177 181 187 192 194 195 194 185 170 160 153 112 16 6 360 355 353 354 357 1 5 5 4 3 2 0 359 1 3 2 355 340 334 339 340 339 339 333 325 327 327 321 315 316 320 323 323 324 325 325 322 318 317 316 314 313 313 308 305 311
125 131 138 147 155 163 170 175 181 188 194 200 203 203 205 212 220 219 208 195 184 178 179 181 182 185 191 196 198 199 201 198 189 180 179 188 213 339 354 354 353 352 353 355 359 3 5 6 6 6 4 2 3 6 6 0 350 342 346 346 337 326 319 315 321 327 326 322 329 345 345 337 331 330 329 327 328 333 339 341 344 345 338 326 329
134 143 151 158 165 172 179 184 191 199 206 210 214 217 220 221 214 201 190 183 180 180 184 187 189 194 199 202 203 205 205 202 196 196 204 214 237 301 339 349 351 352 352 354 357 1 3 5 7 8 7 4 5 8 7 4 356 346 344 345 336 317 308 310 316 322 329 338 352 0 2 356 345 338 339 344 353 3 12 26 42 50 57 57 48
135 152 172 186 196 203 208 213 219 225 229 231 230 226 218 206 194 185 182 182 184 188 193 196 197 200 205 207 209 210 210 207 206 212 221 232 250 286 324 338 344 349 352 352 354 358 1 3 6 8 8 7 7 9 8 6 1 351 340 341 339 316 297 309 315 313 318 358 354 350 352 349 343 345 357 2 7 18 36 62 77 77 77 74 71
119 130 147 168 191 208 218 222 225 227 227 225 219 209 198 189 183 183 185 189 193 199 203 203 202 206 210 211 213 217 219 218 218 224 234 245 257 278 307 326 336 345 349 349 352 355 358 0 4 7 8 8 9 9 9 8 6 358 343 335 338 327 304 307 312 295 261 1 355 346 340 336 337 0 24 19 18 29 43 57 66 70 75 81 84
102 107 116 132 153 179 196 203 205 205 203 200 195 189 185 185 187 191 196 201 207 211 213 211 211 213 215 216 220 225 229 231 233 237 243 253 262 276 297 316 329 338 343 346 348 351 354 357 1 4 7 9 10 10 8 8 8 5 355 334 329 329 317 308 301 271 236 309 354 357 357 356 360 20 32 31 34 41 47 52 59 67 77 86 92
90 92 100 117 138 157 169 175 178 180 182 183 184 187 190 195 199 204 209 214 219 222 223 222 222 222 222 224 228 233 238 244 247 249 252 259 268 277 290 307 320 330 338 342 344 347 350 353 357 1 4 8 10 10 9 8 8 8 5 353 332 322 315 304 284 257 245 281 344 357 3 8 11 14 22 33 38 40 46 58 67 75 85 92 95
Height
5712 5712 5713 5715 5716 5717 5717 5717 5718 5719 5719 5720 5720 5721 5722 5722 5723 5724 5724 5724 5724 5724 5725 5725 5725 5725 5725 5725 5725 5725 5725 5726 5726 5727 5728 5728 5728 5728 5729 5729 5729 5729 5730 5730 5730 5730 5731 5732 5732 5733 5733 5734 5734 5735 5735 5736 5736 5737 5737 5737 5738 5738 5739 5739 5739 5739 5739 5739 5740 5740 5741 5741 5742 5743 5744 5745 5745 5746 5747 5747 5748 5749 5750 5751 5751
5711 5711 5711 5712 5713 5714 5714 5714 5715 5716 5716 5716 5718 5718 5719 5720 5720 5721 5722 5722 5722 5722 5722 5722 5723 5723 5723 5723 5723 5723 5724 5724 5724 5725 5725 5726 5726 5727 5727 5727 5727 5728 5728 5728 5728 5729 5729 5729 5730 5730 5731 5732 5732 5732 5733 5733 5734 5734 5734 5735 5735 5736 5736 5737 5737 5737 5736 5736 5737 5737 5737 5738 5739 5739 5740 5741 5742 5743 5744 5744 5745 5745 5746 5747 5748
5708 5708 5709 5709 5710 5710 5711 5710 5711 5713 5713 5714 5715 5716 5716 5716 5717 5717 5718 5719 5719 5719 5719 5720 5720 5720 5720 5721 5721 5722 5722 5722 5722 5722 5723 5723 5724 5724 5725 5725 5725 5725 5726 5726 5726 5726 5727 5727 5727 5728 5728 5729 5729 5730 5730 5731 5731 5731 5732 5732 5732 5733 5733 5734 5734 5735 5734 5734 5734 5734 5734 5734 5735 5736 5736 5737 5738 5739 5740 5741 5741 5742 5742 5743 5744
5705 5705 5706 5706 5707 5707 5707 5707 5708 5709 5710 5711 5712 5713 5713 5713 5713 5714 5714 5714 5715 5716 5717 5717 5717 5717 5717 5718 5718 5719 5719 5720 5720 5720 5720 5721 5721 5722 5722 5723 5723 5723 5723 5724 5724 5724 5724 5725 5725 5725 5725 5726 5726 5726 5727 5727 5728 5728 5728 5729 5729 5729 5730 5730 5730 5731 5731 5731 5731 5731 5731 5731 5732 5732 5732 5733 5734 5734 5735 5736 5737 5737 5738 5739 5740
5701 5702 5702 5702 5703 5703 5704 5704 5705 5706 5707 5707 5708 5708 5709 5710 5710 5710 5710 5711 5712 5713 5715 5716 5716 5715 5715 5715 5715 5716 5717 5717 5717 5717 5717 5718 5718 5718 5719 5720 5720 5721 5721 5721 5722 5722 5722 5722 5723 5723 5723 5723 5723 5723 5723 5724 5724 5724 5725 5725 5725 5726 5726 5726 5726 5727 5727 5728 5728 5727 5727 5728 5728 5728 5728 5728 5729 5730 5731 5731 5732 5733 5733 5734 5735
5698 5698 5698 5698 5698 5698 5699 5700 5700 5702 5702 5702 5703 5704 5705 5706 5706 5707 5707 5708 5708 5710 5711 5712 5712 5712 5712 5712 5713 5713 5714 5714 5714 5714 5714 5714 5715 5715 5715 5716 5717 5718 5718 5719 5719 5719 5719 5720 5720 5720 5720 5720 5720 5720 5720 5720 5720 5721 5721 5721 5721 5722 5722 5722 5722 5723 5723 5723 5724 5723 5723 5723 5723 5724 5724 5724 5725 5725 5726 5726 5727 5728 5728 5729 5730
5693 5694 5694 5694 5694 5694 5695 5696 5696 5697 5697 5698 5699 5700 5701 5701 5702 5702 5703 5704 5704 5705 5706 5706 5707 5708 5709 5709 5709 5709 5710 5711 5711 5712 5712 5711 5712 5712 5712 5712 5713 5714 5715 5715 5715 5715 5716 5716 5716 5717 5717 5717 5717 5717 5717 5717 5717 5717 5717 5717 5717 5718 5718 5718 5718 5719 5719 5719 5719 5719 5719 5718 5718 5718 5718 5719 5719 5720 5720 5721 5722 5723 5723 5724 5724
5688 5689 5690 5690 5690 5690 5691 5691 5692 5693 5693 5694 5695 5695 5696 5696 5696 5697 5698 5699 5700 5701 5701 5702 5703 5704 5704 5704 5705 5705 5705 5706 5707 5708 5708 5708 5708 5708 5708 5708 5709 5710 5711 5711 5711 5712 5712 5712 5712 5712 5712 5712 5713 5713 5713 5714 5714 5713 5713 5713 5713 5714 5714 5714 5714 5714 5714 5715 5715 5715 5715 5714 5713 5713 5713 5713 5714 5714 5715 5716 5717 5718 5718 5719 5720
5684 5684 5684 5685 5685 5685 5685 5686 5687 5688 5689 5690 5690 5690 5691 5691 5691 5691 5692 5693 5695 5695 5696 5697 5698 5699 5699 5699 5700 5700 5700 5701 5702 5702 5704 5704 5704 5705 5705 5704 5705 5706 5706 5707 5707 5708 5708 5708 5708 5708 5708 5708 5708 5709 5709 5709 5709 5709 5709 5709 5709 5709 5709 5709 5709 5709 5709 5710 5710 5710 5710 5710 5709 5709 5708 5708 5708 5709 5709 5710 5711 5712 5712 5714 5714
5678 5679 5679 5680 5680 5680 5680 5681 5682 5683 5684 5685 5686 5686 5686 5686 5687 5688 5688 5689 5690 5690 5691 5693 5693 5694 5694 5694 5694 5695 5696 5697 5696 5697 5698 5699 5699 5700 5700 5701 5701 5701 5702 5702 5703 5703 5703 5703 5704 5704 5704 5704 5704 5704 5704 5704 5704 5704 5704 5704 5704 5705 5705 5704 5704 5704 5704 5704 5704 5705 5705 5705 5705 5704 5704 5704 5703 5704 5704 5704 5705 5705 5706 5707 5708
5672 5673 5673 5674 5674 5675 5675 5676 5676 5677 5679 5680 5680 5681 5681 5681 5682 5683 5683 5684 5685 5685 5686 5687 5687 5688 5688 5688 5689 5690 5691 5692 5692 5692 5693 5694 5694 5695 5696 5696 5696 5696 5697 5698 5698 5698 5698 5698 5699 5699 5699 5699 5699 5698 5698 5698 5699 5699 5699 5699 5699 5699 5699 5699 5699 5699 5698 5698 5699 5699 5699 5699 5699 5699 5698 5698 5698 5699 5699 5699 5699 5699 5700 5701 5702
5666 5666 5667 5667 5668 5668 5669 5669 5670 5671 5672 5673 5674 5675 5675 5675 5675 5676 5677 5678 5679 5679 5680 5680 5681 5682 5682 5683 5684 5686 5686 5686 5687 5688 5688 5688 5689 5689 5690 5691 5691 5691 5692 5692 5692 5693 5693 5693 5693 5694 5694 5694 5693 5693 5693 5692 5692 5693 5693 5693 5693 5692 5693 5693 5693 5693 5692 5692 5692 5692 5692 5692 5693 5692 5692 5691 5692 5693 5693 5693 5693 5693 5694 5695 5695
5659 5659 5660 5661 5661 5662 5662 5663 5663 5664 5665 5667 5667 5668 5669 5669 5669 5669 5670 5671 5672 5673 5674 5675 5675 5676 5677 5677 5678 5681 5682 5681 5681 5682 5683 5683 5683 5684 5684 5684 5685 5685 5686 5686 5686 5686 5686 5687 5687 5688 5688 5688 5688 5687 5687 5687 5686 5686 5686 5686 5686 5686 5685 5685 5685 5685 5685 5685 5686 5686 5686 5685 5686 5686 5685 5684 5685 5685 5685 5685 5686 5686 5687 5688 5689
5653 5653 5653 5654 5654 5655 5656 5656 5657 5657 5658 5659 5660 5661 5662 5663 5663 5663 5663 5664 5665 5666 5668 5669 5669 5670 5670 5671 5672 5674 5675 5675 5674 5675 5676 5676 5677 5677 5677 5677 5679 5680 5680 5680 5680 5679 5680 5680 5681 5681 5681 5681 5681 5681 5681 5681 5680 5680 5680 5680 5679 5679 5679 5678 5678 5677 5677 5677 5678 5679 5679 5678 5679 5679 5678 5677 5677 5677 5677 5678 5678 5679 5680 5681 5682
5647 5647 5647 5648 5648 5649 5649 5650 5650 5651 5651 5652 5653 5654 5655 5656 5656 5657 5657 5658 5659 5659 5661 5662 5663 5663 5663 5664 5666 5669 5669 5668 5667 5668 5669 5669 5670 5670 5669 5670 5672 5673 5672 5673 5673 5673 5673 5673 5674 5673 5673 5673 5674 5674 5674 5673 5672 5672 5672 5673 5672 5672 5671 5671 5670 5670 5669 5670 5670 5670 5670 5670 5670 5670 5670 5669 5669 5669 5669 5670 5671 5671 5672 5673 5674
5640 5641 5641 5642 5642 5642 5643 5644 5644 5645 5645 5646 5647 5647 5648 5649 5649 5650 5650 5651 5652 5653 5653 5654 5656 5657 5656 5657 5660 5663 5662 5661 5661 5660 5661 5662 5663 5662 5662 5663 5665 5665 5665 5665 5666 5666 5666 5666 5666 5665 5665 5665 5666 5666 5665 5665 5664 5664 5664 5664 5664 5664 5664 5663 5662 5662 5662 5662 5662 5662 5662 5661 5661 5661 5661 5660 5661 5661 5661 5662 5662 5662 5663 5665 5667
5634 5634 5635 5635 5635 5636 5637 5638 5638 5639 5639 5639 5640 5641 5642 5642 5642 5643 5643 5644 5645 5645 5646 5647 5648 5650 5650 5650 5654 5656 5655 5654 5654 5654 5654 5656 5656 5655 5655 5656 5657 5657 5657 5657 5658 5658 5658 5657 5657 5657 5657 5658 5658 5658 5657 5656 5656 5655 5655 5655 5655 5656 5655 5654 5654 5654 5654 5654 5654 5654 5654 5653 5653 5653 5652 5652 5652 5652 5652 5654 5654 5653 5654 5657 5659
5627 5627 5628 5628 5629 5630 5630 5631 5632 5632 5632 5633 5633 5634 5635 5635 5636 5636 5636 5637 5638 5638 5639 5640 5641 5643 5644 5644 5647 5648 5646 5646 5647 5647 5648 5649 5648 5648 5648 5648 5649 5649 5649 5650 5650 5650 5650 5649 5649 5649 5649 5650 5650 5649 5649 5648 5647 5647 5647 5647 5647 5647 5646 5646 5646 5647 5646 5646 5646 5645 5645 5645 5644 5645 5644 5644 5644 5643 5644 5645 5645 5645 5646 5648 5649
5619 5620 5621 5621 5622 5623 5624 5624 5625 5625 5626 5626 5626 5627 5627 5628 5628 5629 5629 5630 5630 5631 5632 5633 5634 5638 5639 5638 5638 5638 5638 5638 5639 5639 5640 5641 5640 5640 5640 5640 5641 5641 5641 5642 5642 5642 5641 5640 5641 5641 5642 5642 5642 5642 5641 5640 5639 5639 5639 5638 5638 5638 5638 5638 5638 5638 5638 5638 5638 5637 5637 5636 5636 5636 5636 5636 5635 5634 5635 5636 5636 5637 5638 5640 5640
5612 5613 5614 5615 5615 5616 5616 5617 5618 5618 5619 5619 5619 5620 5620 5620 5621 5622 5622 5623 5623 5623 5625 5627 5629 5632 5632 5630 5630 5631 5631 5631 5632 5632 5633 5634 5633 5632 5632 5632 5633 5634 5634 5634 5634 5634 5633 5632 5633 5634 5634 5634 5634 5634 5633 5632 5632 5631 5630 5630 5630 5629 5629 5630 5629 5629 5629 5629 5629 5628 5628 5628 5627 5627 5627 5627 5627 5626 5626 5626 5627 5627 5629 5631 5631
5605 5606 5607 5607 5608 5609 5609 5610 5610 5611 5612 5612 5613 5613 5613 5613 5614 5614 5615 5616 5615 5615 5619 5621 5623 5625 5624 5623 5623 5624 5624 5625 5625 5626 5626 5626 5625 5625 5625 5625 5625 5626 5627 5627 5627 5626 5625 5625 5626 5627 5626 5626 5626 5625 5625 5624 5624 5623 5623 5622 5622 5621 5621 5621 5621 5621 5620 5620 5620 5620 5620 5619 5618 5618 5618 5617 5617 5617 5617 5617 5618 5618 5620 5621 5622
5598 5599 5600 5600 5601 5601 5602 5602 5603 5604 5604 5605 5606 5606 5606 5607 5607 5607 5608 5608 5606 5609 5614 5615 5616 5617 5617 5616 5616 5617 5617 5618 5619 5619 5619 5619 5618 5618 5618 5618 5618 5619 5619 5619 5619 5619 5617 5617 5619 5619 5618 5618 5618 5617 5617 5617 5616 5616 5615 5614 5613 5613 5612 5613 5613 5612 5612 5612 5611 5611 5611 5610 5610 5609 5609 5608 5608 5607 5607 5608 5608 5609 5610 5611 5612
5591 5592 5592 5593 5594 5594 5595 5595 5596 5597 5597 5597 5598 5599 5599 5600 5600 5600 5601 5600 5600 5603 5607 5608 5608 5608 5609 5609 5610 5610 5610 5611 5612 5612 5612 5611 5611 5612 5612 5611 5611 5611 5612 5611 5611 5611 5610 5610 5611 5612 5610 5610 5610 5609 5609 5608 5608 5607 5607 5606 5605 5605 5604 5604 5604 5604 5603 5603 5602 5602 5602 5601 5601 5600 5600 5599 5599 5598 5598 5598 5599 5600 5601 5602 5602
5583 5584 5585 5586 5587 5588 5588 5589 5589 5590 5590 5590 5591 5592 5592 5593 5594 5594 5594 5594 5594 5597 5599 5599 5599 5601 5602 5602 5603 5603 5604 5604 5604 5605 5605 5605 5605 5605 5605 5604 5604 5604 5605 5605 5604 5604 5603 5603 5603 5603 5602 5602 5602 5602 5601 5600 5600 5599 5599 5598 5597 5597 5596 5596 5596 5595 5595 5594 5594 5593 5593 5592 5592 5592 5591 5591 5590 5589 5589 5589 5590 5590 5591 5593 5593
5576 5577 5578 5579 5580 5581 5581 5582 5582 5583 5583 5584 5584 5584 5585 5587 5588 5588 5588 5587 5588 5590 5592 5592 5592 5593 5594 5595 5596 5597 5597 5597 5597 5598 5599 5599 5599 5598 5598 5598 5598 5598 5598 5598 5597 5597 5597 5596 5596 5595 5595 5595 5595 5594 5593 5592 5592 5591 5590 5590 5589 5589 5588 5588 5587 5587 5586 5586 5585 5585 5584 5584 5583 5583 5582 5582 5581 5581 5580 5580 5580 5581 5582 5583 5584
5568 5569 5571 5572 5572 5573 5574 5575 5575 5576 5577 5578 5577 5577 5579 5581 5581 5581 5581 5582 5582 5584 5585 5586 5586 5586 5586 5588 5589 5590 5590 5590 5591 5592 5592 5592 5592 5592 5592 5592 5591 5591 5592 5591 5591 5591 5590 5590 5589 5589 5588 5588 5587 5587 5586 5585 5584 5583 5582 5582 5581 5580 5580 5579 5579 5578 5578 5577 5576 5576 5575 5575 5574 5574 5573 5573 5572 5572 5571 5570 5571 5571 5571 5572 5574
5561 5562 5563 5564 5565 5567 5567 5568 5569 5569 5570 5570 5570 5571 5573 5574 5574 5575 5575 5576 5577 5578 5578 5580 5580 5580 5580 5582 5583 5583 5583 5585 5585 5586 5585 5585 5585 5585 5585 5585 5585 5585 5585 5585 5584 5584 5584 5583 5583 5582 5582 5581 5580 5579 5578 5577 5577 5576 5575 5574 5573 5572 5572 5571 5570 5569 5569 5568 5567 5566 5566 5565 5565 5564 5564 5563 5563 5563 5562 5561 5561 5561 5561 5562 5564
5553 5554 5555 5557 5558 5559 5560 5561 5562 5562 5563 5564 5564 5565 5567 5567 5568 5569 5569 5570 5571 5572 5572 5574 5574 5574 5574 5576 5576 5577 5578 5578 5578 5578 5578 5579 5579 5579 5578 5578 5579 5578 5578 5578 5578 5578 5578 5577 5577 5576 5575 5575 5574 5573 5572 5571 5570 5569 5568 5567 5566 5565 5564 5563 5562 5560 5559 5558 5557 5557 5556 5555 5554 5554 5553 5553 5553 5552 5551 5551 5551 5551 5551 5552 5554
5545 5546 5548 5550 5551 5552 5553 5554 5555 5555 5556 5558 5559 5559 5560 5561 5562 5563 5563 5563 5564 5565 5566 5567 5567 5568 5569 5570 5570 5571 5571 5571 5571 5572 5572 5572 5572 5572 5572 5572 5572 5572 5572 5572 5572 5572 5572 5571 5571 5570 5569 5569 5568 5567 5566 5565 5564 5563 5562 5560 5559 5558 5556 5555 5553 5551 5550 5549 5547 5546 5545 5545 5544 5543 5543 5542 5542 5542 5541 5541 5541 5542 5542 5542 5544
5537 5538 5540 5542 5543 5545 5546 5547 5548 5549 5550 5552 5552 5552 5553 5555 5556 5556 5557 5557 5558 5559 5560 5560 5560 5561 5563 5563 5563 5564 5564 5565 5565 5566 5566 5566 5566 5567 5567 5566 5567 5567 5567 5567 5567 5567 5567 5566 5566 5565 5564 5563 5562 5561 5560 5559 5558 5556 5554 5553 5551 5549 5547 5546 5544 5542 5540 5539 5537 5536 5535 5534 5533 5532 5532 5532 5532 5531 5530 5530 5531 5532 5532 5533 5534
5529 5530 5533 5535 5536 5538 5539 5540 5541 5543 5544 5545 5545 5546 5547 5549 5550 5550 5550 5550 5551 5553 5553 5553 5553 5555 5556 5556 5557 5558 5558 5559 5560 5560 5561 5561 5561 5562 5562 5562 5562 5562 5562 5563 5563 5563 5563 5562 5561 5561 5559 5558 5557 5555 5554 5552 5550 5548 5546 5544 5542 5540 5538 5536 5534 5532 5530 5529 5527 5526 5524 5523 5522 5522 5521 5521 5521 5521 5520 5520 5521 5522 5523 5523 5524
5521 5523 5525 5527 5529 5531 5532 5533 5535 5536 5537 5538 5539 5539 5540 5542 5543 5544 5544 5544 5545 5546 5546 5546 5547 5548 5549 5550 5551 5552 5553 5554 5555 5556 5556 5557 5558 5558 5558 5558 5558 5559 5559 5559 5560 5559 5559 5558 5557 5556 5554 5552 5551 5549 5547 5545 5542 5540 5538 5535 5533 5531 5528 5526 5524 5522 5520 5518 5517 5515 5514 5513 5512 5512 5511 5511 5511 5511 5511 5511 5511 5512 5513 5514 5515
5513 5515 5518 5520 5522 5524 5526 5526 5528 5530 5531 5532 5533 5534 5534 5535 5536 5537 5537 5538 5538 5539 5539 5540 5541 5541 5542 5544 5545 5546 5548 5550 5551 5552 5553 5554 5555 5555 5555 5555 5556 5556 5556 5556 5556 5555 5555 5553 5552 5550 5548 5546 5544 5542 5540 5537 5534 5532 5529 5526 5524 5521 5519 5516 5514 5512 5510 5508 5507 5506 5505 5504 5503 5502 5501 5501 5501 5501 5502 5502 5502 5503 5504 5505 5506
5504 5507 5510 5512 5515 5518 5519 5520 5522 5524 5526 5527 5528 5528 5529 5529 5530 5531 5532 5532 5533 5534 5534 5535 5536 5537 5538 5540 5542 5543 5545 5547 5548 5550 5551 5551 5552 5553 5553 5553 5553 5553 5553 5553 5552 5551 5550 5548 5547 5545 5543 5541 5538 5536 5533 5530 5527 5524 5521 5517 5515 5512 5510 5507 5505 5503 5501 5499 5498 5497 5496 5495 5493 5493 5493 5493 5493 5493 5493 5494 5494 5495 5496 5497 5497
5495 5499 5502 5505 5508 5511 5513 5515 5517 5519 5520 5522 5523 5524 5525 5525 5526 5527 5527 5528 5529 5530 5531 5532 5534 5535 5537 5538 5540 5542 5543 5545 5546 5547 5548 5549 5550 5550 5551 5551 5551 5551 5551 5550 5549 5547 5546 5544 5542 5540 5538 5536 5533 5530 5527 5523 5520 5516 5513 5510 5507 5504 5502 5499 5497 5495 5493 5492 5490 5489 5488 5487 5486 5486 5486 5486 5486 5486 5486 5487 5487 5488 5489 5490 5491
5487 5490 5495 5498 5501 5504 5507 5510 5512 5514 5516 5517 5519 5521 5522 5523 5523 5524 5525 5526 5528 5529 5530 5531 5533 5534 5536 5537 5539 5540 5542 5543 5544 5545 5546 5547 5548 5549 5549 5549 5549 5549 5548 5547 5545 5544 5542 5540 5538 5536 5534 5531 5528 5524 5521 5517 5513 5509 5506 5503 5499 5497 5494 5492 5490 5488 5487 5486 5485 5484 5483 5482 5481 5480 5480 5480 5480 5481 5481 5481 5482 5483 5483 5484 5485
5480 5484 5488 5491 5495 5499 5502 5505 5508 5511 5513 5514 5516 5518 5520 5521 5522 5523 5524 5525 5527 5528 5529 5530 5532 5533 5535 5536 5537 5539 5540 5541 5542 5543 5544 5546 5546 5547 5547 5547 5547 5546 5545 5544 5542 5541 5539 5537 5535 5533 5530 5526 5523 5519 5514 5510 5506 5502 5499 5495 5492 5490 5488 5487 5485 5484 5483 5481 5480 5480 5479 5478 5477 5477 5477 5477 5477 5477 5477 5478 5478 5479 5479 5480 5480
5476 5480 5483 5487 5491 5495 5499 5502 5505 5508 5510 5512 5514 5516 5518 5520 5521 5522 5523 5524 5526 5527 5528 5529 5531 5532 5533 5535 5536 5537 5538 5539 5541 5542 5543 5544 5545 5545 5545 5545 5544 5543 5542 5541 5540 5538 5537 5534 5532 5529 5525 5522 5517 5513 5508 5503 5499 5495 5492 5489 5487 5485 5484 5483 5482 5481 5480 5478 5477 5477 5476 5475 5475 5474 5474 5474 5474 5474 5474 5474 5474 5475 5475 5475 5475
5475 5478 5481 5485 5489 5493 5497 5500 5503 5506 5508 5511 5513 5515 5516 5518 5520 5521 5522 5524 5525 5526 5527 5528 5530 5531 5532 5533 5534 5536 5537 5539 5540 5541 5542 5543 5543 5543 5543 5543 5542 5542 5541 5540 5538 5536 5534 5531 5528 5525 5521 5517 5512 5507 5501 5496 5492 5489 5487 5485 5483 5482 5481 5480 5479 5478 5477 5476 5475 5474 5474 5473 5473 5473 5472 5472 5472 5471 5471 5471 5470 5470 5470 5470 5470
5475 5478 5482 5486 5489 5493 5496 5499 5502 5505 5507 5510 5511 5513 5515 5517 5518 5520 5521 5523 5524 5525 5526 5527 5529 5530 5531 5532 5534 5535 5536 5538 5539 5540 5541 5541 5541 5541 5541 5542 5541 5541 5539 5537 5535 5533 5531 5528 5525 5521 5517 5512 5507 5501 5495 5491 5487 5485 5483 5482 5481 5480 5479 5478 5477 5476 5475 5474 5473 5473 5472 5472 5471 5471 5470 5469 5469 5468 5467 5466 5466 5465 5465 5465 5465
5476 5479 5483 5486 5489 5492 5495 5498 5501 5504 5506 5508 5510 5512 5514 5516 5517 5519 5520 5522 5523 5524 5525 5527 5528 5529 5530 5532 5533 5534 5535 5536 5538 5539 5539 5540 5540 5540 5541 5541 5540 5539 5537 5535 5533 5531 5528 5524 5521 5517 5513 5508 5503 5497 5491 5487 5484 5483 5481 5480 5479 5478 5477 5476 5475 5474 5474 5473 5473 5472 5471 5470 5470 5469 5467 5466 5465 5464 5463 5463 5462 5462 5461 5461 5461
5477 5480 5483 5486 5489 5492 5495 5498 5500 5503 5505 5507 5509 5511 5513 5515 5516 5518 5519 5520 5522 5523 5524 5526 5527 5528 5530 5531 5532 5533 5534 5535 5536 5537 5538 5538 5539 5539 5539 5539 5538 5537 5535 5533 5531 5528 5525 5521 5518 5514 5510 5505 5500 5493 5488 5485 5483 5481 5480 5479 5478 5476 5476 5475 5474 5474 5473 5472 5471 5470 5469 5468 5467 5466 5465 5463 5462 5462 5461 5460 5460 5459 5459 5459 5458
5480 5482 5484 5487 5490 5492 5495 5498 5500 5503 5505 5507 5509 5511 5512 5514 5516 5517 5518 5519 5520 5522 5523 5525 5526 5527 5529 5530 5531 5532 5533 5535 5535 5536 5536 5537 5538 5538 5537 5537 5536 5535 5533 5531 5528 5525 5522 5519 5515 5511 5507 5503 5497 5491 5486 5483 5482 5480 5479 5478 5476 5475 5475 5474 5473 5473 5472 5471 5470 5469 5468 5467 5465 5464 5463 5462 5460 5459 5459 5458 5457 5457 5457 5456 5456
5483 5485 5487 5489 5491 5493 5496 5498 5501 5503 5505 5507 5509 5510 5512 5514 5515 5516 5517 5518 5519 5521 5522 5524 5525 5527 5528 5529 5530 5532 5533 5534 5534 5535 5535 5536 5536 5536 5535 5535 5534 5533 5531 5529 5526 5523 5520 5517 5513 5509 5505 5500 5495 5489 5485 5482 5480 5479 5478 5476 5475 5475 5474 5473 5473 5472 5471 5470 5469 5468 5467 5466 5465 5463 5462 5460 5459 5458 5457 5456 5455 5455 5455 5455 5455
5487 5488 5490 5492 5493 5495 5497 5499 5502 5503 5505 5507 5508 5510 5511 5513 5514 5515 5516 5518 5519 5520 5522 5523 5525 5526 5527 5529 5530 5531 5532 5533 5533 5533 5533 5534 5534 5534 5533 5533 5532 5531 5529 5527 5524 5521 5518 5515 5512 5507 5503 5499 5493 5488 5484 5481 5480 5478 5477 5476 5475 5474 5474 5473 5472 5472 5471 5470 5469 5468 5467 5466 5464 5463 5461 5460 5458 5457 5456 5455 5454 5454 5454 5454 5454
5490 5491 5493 5494 5496 5497 5499 5500 5502 5504 5505 5507 5508 5509 5510 5512 5513 5514 5516 5517 5518 5520 5522 5523 5524 5526 5527 5528 5530 5530 5531 5531 5531 5531 5532 5532 5532 5532 5531 5531 5530 5529 5527 5525 5523 5520 5517 5514 5511 5507 5502 5498 5493 5488 5484 5481 5479 5478 5476 5475 5474 5474 5473 5473 5472 5471 5470 5469 5468 5468 5467 5466 5464 5463 5461 5460 5458 5457 5456 5455 5454 5454 5454 5454 5454
5491 5493 5494 5495 5497 5498 5500 5501 5502 5504 5505 5506 5507 5508 5510 5511 5512 5513 5515 5517 5518 5520 5521 5523 5524 5525 5526 5527 5528 5529 5529 5529 5529 5530 5530 5530 5530 5530 5530 5529 5528 5527 5525 5524 5522 5519 5516 5513 5510 5506 5502 5498 5493 5489 5485 5481 5479 5477 5476 5475 5474 5473 5473 5473 5472 5471 5470 5469 5469 5468 5467 5466 5465 5463 5462 5461 5459 5458 5457 5456 5456 5456 5456 5456 5455
5492 5494 5495 5496 5497 5499 5500 5501 5502 5503 5505 5506 5507 5508 5509 5510 5512 5513 5515 5517 5518 5520 5521 5522 5523 5524 5525 5526 5527 5527 5527 5528 5528 5528 5528 5528 5529 5528 5528 5527 5526 5525 5524 5522 5520 5518 5516 5513 5510 5506 5503 5498 5494 5490 5486 5483 5480 5477 5476 5475 5474 5473 5472 5472 5472 5471 5470 5470 5469 5469 5468 5467 5466 5465 5464 5462 5461 5460 5459 5458 5458 5458 5457 5457 5457
5493 5494 5495 5496 5497 5499 5500 5501 5502 5503 5504 5505 5506 5508 5509 5511 5512 5514 5515 5517 5518 5519 5520 5521 5522 5523 5524 5524 5525 5525 5526 5526 5526 5526 5527 5527 5527 5526 5526 5525 5524 5523 5522 5521 5519 5517 5515 5513 5510 5507 5503 5499 5495 5491 5487 5484 5481 5478 5476 5475 5474 5473 5472 5472 5472 5471 5471 5470 5470 5470 5469 5468 5467 5466 5465 5464 5463 5462 5461 5461 5460 5460 5460 5460 5459
5494 5495 5496 5497 5498 5499 5500 5501 5502 5503 5504 5505 5507 5508 5510 5511 5513 5514 5515 5516 5518 5519 5520 5520 5521 5522 5522 5523 5523 5524 5524 5524 5524 5525 5525 5525 5525 5525 5524 5524 5523 5522 5521 5519 5518 5516 5514 5512 5510 5507 5504 5500 5496 5492 5489 5486 5482 5479 5476 5475 5474 5473 5472 5472 5471 5471 5471 5471 5471 5470 5470 5469 5468 5467 5466 5466 5465 5464 5464 5463 5463 5463 5462 5462 5462
5496 5496 5497 5498 5499 5500 5501 5501 5502 5504 5505 5506 5507 5509 5510 5511 5513 5514 5515 5516 5517 5518 5519 5519 5520 5521 5521 5521 5522 5522 5522 5523 5523 5523 5523 5523 5523 5523 5522 5522 5521 5520 5519 5518 5517 5515 5514 5512 5509 5507 5504 5501 5497 5493 5490 5487 5484 5480 5477 5475 5473 5473 5472 5472 5471 5471 5471 5471 5471 5471 5471 5470 5469 5468 5467 5467 5466 5466 5465 5465 5465 5465 5464 5464 5464